EHI
0 0 0 0 0 0 0 0 0 0 0 0 0 0 0 0 0 0 0 0 0 0 0 0 0 0 0 0 0 0 0 0 0 0 0 0 0 0 0 0 0 0 0 0 0 0 0 0 0
0 0 0 0 0 0 0 0 0 0 0 0 0 0 0 0 0 0 0 0 0 0 0 0 0 0 0 0 0 0 0 0 0 0 0 0 0 0 0 0 0 0 0 0 0 0 0 0 0
0 0 0 0 0 0 0 0 0 0 0 0 0 0 0 0 0 0 0 0 0 0 0 0 0 0 0 0 0 0 0 0 0 0 0 0 0 0 0 0 0 0 0 0 0 0 0 0 0
0 0 0 0 0 0 0 0 0 0 0 0 0 0 0 0 0 0 0 0 0 0 0 0 0 0 0 0 0 0 0 0 0 0 0 0 0 0 0 0 0 0 0 0 0 0 0 0 0
0 0 0 0 0 0 0 0 0 0 0 0 0 0 0 0 0 0 0 0 0 0 0 0 0 0 0 0 0 0 0 0 0 0 0 0 0 0 0 0 0 0 0 0 0 0 0 0 0
0 0 0 0 0 0 0 0 0 0 0 0 0 0 0 0 0 0 0 0 0 0 0 0 0 0 0 0 0 0 0 0 0 0 0 0 0 0 0 0 0 0 0 0 0 0 0 0 0
0 0 0 0 0 0 0 0 0 0 0 0 0 0 0 0 0 0 0 0 0 0 0 0 0 0 0 0 0 0 0 0 0 0 0 0 0 0 0 0 0 0 0 0 0 0 0 0 0
0 0 0 0 0 0 0 0 0 0 0 0 0 0 0 0 0 0 0 0 0 0 0 0 0 0 0 0 0 0 0 0 0 0 0 0 0 0 0 0 0 0 0 0 0 0 0 0 0
0 0 0 0 0 0 0 0 0 0 0 0 0 0 0 0 0 0 0 0 0 0 0 0 0 0 0 0 0 0 0 0 0 0 0 0 0 0 0 0 0 0 0 0 0 0 0 0 0
0 0 0 0 0 0 0 0 0 0 0 0 0 0 0 0 0 0 0 0 0 0 0 0 0 0 0 0 0 0 0 0 0 0 0 0 0 0 0 0 0 0 0 0 0 0 0 0 0
0 0 0 0 0 0 0 0 0 0 0 0 0 0 0 0 0 0 0 0 0 0 0 0 0 0 0 0 0 0 0 0 0 0 0 0 0 0 0 0 0 0 0 0 0 0 0 0 0
0 0 0 0 0 0 0 0 0 0 0 0 0 0 0 0 0 0 0 0 0 0 0 0 0 0 0 0 0 0 0 0 0 0 0 0 0 0 0 0 0 0 0 0 0 0 0 0 0
0 0 0 0 0 0 0 0 0 0 0 0 0 0 0 0 0 0 0 0 0 0 0 0 0 0 0 0 0 0 0 0 0 0 0 0 0 0 0 0 0 0 0 0 0 0 0 0 0
0 0 0 0 0 0 0 0 0 0 0 0 0 0 0 0 0 0 0 0 0 0 0 0 0 0 0 0 0 0 0 0 0 0 0 0 0 0 0 0 0 0 0 0 0 0 0 0 0
0 0 0 0 0 0 0 0 0 0 0 0 0 0 0 0 0 0 0 0 0 0 0 0 0 0 0 0 0 0 0 0 0 0 0 0 0 0 0 0 0 0 0 0 0 0 0 0 0
0 0 0 0 0 0 0 0 0 0 0 0 0 0 0 0 0 0 0 0 0 0 0 0 0 0 0 0 0 0 0 0 0 0 0 0 0 0 0 0 0 0 0 0 0 0 0 0 0
0 0 0 0 0 0 0 0 0 0 0 0 0 0 0 0 0 0 0 0 0 0 0 0 0 0 0 0 0 0 0 0 0 0 0 0 0 0 0 0 0 0 0 0 0 0 0 0 0
0 0 0 0 0 0 0 0 0 0 0 0 0 0 0 0 0 0 0 0 0 0 0 0 0 0 0 0 0 0 0 0 0 0 0 0 0 0 0 0 0 0 0 0 0 0 0 0 0
0 0 0 0 0 0 0 0 0 0 0 0 0 0 0 0 0 0 0 0 0 0 0 0 0 0 0 0 0 0 0 0 0 0 0 0 0 0 0 0 0 0 0 0 0 0 0 0 0
0 0 0 0 0 0 0 0 0 0 0 0 0 0 0 0 0 0 0 0 0 0 0 0 0 0 0 0 0 0 0 0 0 0 0 0 0 0 0 0 0 0 0 0 0 0 0 0 0
0 0 0 0 0 0 0 0 0 0 0 0 0 0 0 0 0 0 0 0 0 0 0 0 0 0 0 0 0 0 0 0 0 0 0 0 0 0 0 0 0 0 0 0 0 0 0 0 0
0 0 0 0 0 0 0 0 0 0 0 0 0 0 0 0 0 0 0 0 0 0 0 0 0 0 0 0 0 0 0 0 0 0 0 0 0 0 0 0 0 0 0 0 0 0 0 0 0
0 0 0 0 0 0 0 0 0 0 0 0 0 0 0 0 0 0 0 0 0 0 0 0 0 0 0 0 0 0 0 0 0 0 0 0 0 0 0 0 0 0 0 0 0 0 0 0 0
0 0 0 0 0 0 0 0 0 0 0 0 0 0 0 0 0 0 0 0 0 0 0 0 0 0 0 0 0 0 0 0 0 0 0 0 0 0 0 0 0 0 0 0 0 0 0 0 0
0 0 0 0 0 0 0 0 0 0 0 0 0 0 0 0 0 0 0 0 0 0 0 0 0 0 0 0 0 0 0 0 0 0 0 0 0 0 0 0 0 0 0 0 0 0 0 0 0
0 0 0 0 0 0 0 0 0 0 0 0 0 0 0 0 0 0 0 0 0 0 0 0 0 0 0 0 0 0 0 0 0 0 0 0 0 0 0 0 0 0 0 0 0 0 0 0 0
0 0 0 0 0 0 0 0 0 0 0 0 0 0 0 0 0 0 0 0 0 0 0 0 0 0 0 0 0 0 0 0 0 0 0 0 0 0 0 0 0 0 0 0 0 0 0 0 0
0 0 0 0 0 0 0 0 0 0 0 0 0 0 0 0 0 0 0 0 0 0 0 0 0 0 0 0 0 0 0 0 0 0 0 0 0 0 0 0 0 0 0 0 0 0 0 0 0
0 0 0 0 0 0 0 0 0 0 0 0 0 0 0 0 0 0 0 0 0 0 0 0 0 0 0 0 0 0 0 0 0 0 0 0 0 0 0 0 0 0 0 0 0 0 0 0 0
0 0 0 0 0 0 0 0 0 0 0 0 0 0 0 0 0 0 0 0 0 0 0 0 0 0 0 0 0 0 0 0 0 0 0 0 0 0 0 0 0 0 0 0 0 0 0 0 0
Wind_Speed
13 10 6 3 3 3 2 4 4 4 5 7 7 6 8 11 7 8 5 10 14 14 12 10 11 12 12 12 12 12 13 14 15 15 16 16 16 16 17 17 17 18 18 18 18 18 18 18 18
9 9 5 3 3 2 3 4 5 8 7 4 3 2 5 9 7 7 6 11 13 13 11 11 11 11 12 12 12 12 13 14 15 15 15 16 16 16 17 17 17 18 18 18 18 18 18 17 17
8 6 3 3 3 3 4 5 8 8 5 2 2 4 7 6 6 5 7 11 12 11 11 12 11 11 12 12 12 13 13 14 14 15 15 15 16 16 16 16 17 17 17 17 17 17 17 16 16
4 3 3 4 3 2 4 5 7 6 3 1 1 6 6 6 4 7 10 10 11 11 12 11 11 11 12 12 13 13 13 14 14 14 15 15 15 15 16 16 16 16 16 16 16 16 16 15 14
2 2 3 4 3 1 3 5 3 4 5 4 1 5 6 4 6 10 8 9 10 10 11 10 10 11 11 12 12 13 13 14 14 14 15 15 14 14 15 15 15 15 15 15 15 15 15 14 13
2 2 3 5 4 3 3 2 0 1 3 4 1 4 6 3 6 8 7 7 9 10 11 9 10 10 10 11 12 12 13 13 13 14 14 14 14 14 14 14 14 14 14 14 14 14 14 13 12
3 2 5 6 4 3 4 3 1 1 2 4 1 4 7 5 6 7 7 7 8 10 10 8 7 9 10 11 11 12 12 12 13 13 13 12 12 13 12 12 13 13 13 13 13 13 12 12 10
3 2 5 6 5 2 4 3 1 2 1 4 1 1 7 9 9 8 6 6 7 8 9 9 8 8 7 8 11 12 12 12 12 12 12 12 11 11 10 10 11 12 12 12 11 11 10 9 7
3 3 6 6 4 2 4 4 2 2 2 3 3 6 9 16 11 9 6 5 6 7 7 8 8 8 8 8 10 10 11 11 11 9 11 9 6 6 6 9 10 11 11 10 9 8 8 6 3
3 5 8 4 2 1 3 3 4 3 4 5 5 8 13 13 12 11 9 9 8 7 7 7 8 8 8 8 7 6 6 6 6 5 6 4 4 5 7 8 9 9 8 8 6 5 4 4 2
5 7 6 3 2 2 1 2 2 4 4 5 9 13 14 12 11 11 11 9 9 8 7 6 7 7 7 6 5 4 4 4 5 6 5 5 5 5 5 3 4 4 5 3 3 3 1 2 2
6 8 7 3 1 0 1 2 3 5 2 4 4 15 15 14 14 13 12 11 9 9 8 6 7 7 7 6 5 4 4 3 3 5 5 4 3 4 4 3 4 3 2 2 2 1 2 2 2
10 7 5 2 1 1 3 4 5 6 4 3 5 12 14 14 12 10 9 9 10 9 9 8 7 7 6 5 4 5 5 4 4 4 4 5 3 4 4 3 3 3 3 2 2 2 2 1 2
6 8 6 4 4 3 5 7 6 7 5 5 6 9 11 12 12 11 11 11 11 11 11 9 8 7 6 5 4 4 4 5 5 4 5 5 4 4 4 3 3 3 3 2 2 2 1 1 1
4 6 7 7 6 5 4 8 12 10 7 7 8 9 11 12 12 13 13 11 11 11 11 10 10 8 7 6 6 4 4 4 4 5 6 6 5 5 5 4 3 3 3 3 1 1 1 1 1
5 6 7 8 10 7 6 11 10 10 11 10 9 9 10 11 13 12 12 10 11 10 11 11 9 10 9 7 6 4 5 5 4 5 5 6 6 6 5 4 4 4 3 3 2 2 1 1 1
8 8 10 8 11 9 10 9 7 7 9 10 9 9 9 10 12 12 12 12 12 12 12 12 11 11 10 8 6 5 5 5 5 5 5 6 6 6 5 4 4 5 4 3 3 2 1 1 0
11 10 10 11 9 11 11 10 8 6 6 8 8 8 9 11 12 12 12 12 12 12 12 13 12 11 10 7 5 4 5 5 5 5 6 8 7 7 6 4 5 5 4 3 3 3 2 1 1
8 11 11 9 7 9 11 13 12 10 9 9 8 8 9 10 10 11 12 12 11 11 13 14 14 13 11 9 8 7 7 6 6 5 7 9 9 9 7 5 5 5 5 5 5 4 3 2 2
13 10 9 5 2 3 6 11 11 11 11 11 11 10 10 9 10 11 13 13 13 14 14 14 15 15 13 11 9 7 7 6 6 5 7 9 9 10 8 7 6 6 5 6 6 5 3 3 3
16 12 8 4 3 2 4 10 15 16 15 13 11 10 10 10 11 12 14 15 15 15 16 15 16 16 16 13 8 6 6 5 6 8 8 9 10 10 9 9 7 7 7 6 7 6 6 4 4
15 10 6 4 3 4 6 7 7 10 14 16 15 12 11 11 10 11 14 15 16 17 15 15 16 16 16 15 13 13 12 12 12 9 9 9 11 11 11 10 9 8 7 7 7 7 6 5 4
6 6 5 4 3 4 5 7 7 7 9 11 12 14 13 12 12 12 13 15 16 16 15 15 15 16 16 16 17 16 14 11 8 8 10 11 10 11 11 11 10 10 8 9 8 8 7 6 5
6 7 4 1 1 8 11 10 9 7 9 8 9 10 11 11 11 12 11 12 14 14 14 14 15 17 17 18 18 18 17 14 11 12 12 11 9 10 12 12 11 11 9 9 9 9 9 8 7
12 11 6 6 7 10 8 10 11 8 7 7 7 7 7 8 9 10 10 11 13 14 15 15 17 18 17 18 19 19 19 17 16 14 13 11 10 10 14 13 12 10 10 10 9 9 9 9 8
16 15 9 9 8 5 6 11 8 5 3 3 2 3 5 5 5 5 6 8 10 13 14 15 17 17 17 18 18 17 17 14 13 14 12 12 11 11 11 14 13 12 11 10 10 9 9 8 9
16 14 6 2 2 2 7 7 7 5 4 4 5 6 6 5 5 5 4 5 7 9 11 14 15 15 15 16 16 16 16 16 14 13 13 9 9 9 12 13 13 12 12 11 11 8 9 9 8
9 10 5 6 7 6 7 8 7 8 10 9 8 8 6 4 4 3 3 3 4 5 7 9 11 13 13 13 13 12 14 15 13 11 12 11 11 11 12 13 13 12 12 12 11 8 8 9 7
13 14 9 8 5 6 5 7 5 10 11 9 7 5 4 3 2 2 2 2 2 2 4 6 8 9 9 10 10 11 11 12 12 11 11 11 10 11 13 13 12 12 12 12 11 10 10 10 8
10 12 12 10 8 5 3 7 1 6 7 7 6 5 3 3 2 2 3 3 3 4 4 5 6 7 7 7 8 9 9 10 11 12 12 10 10 11 11 11 12 12 12 12 13 12 12 12 12
Wind_Direction
309 304 298 286 279 251 87 78 70 84 72 44 28 4 41 46 43 99 130 116 117 118 124 122 116 115 111 108 107 105 103 102 100 98 97 95 94 92 90 88 87 85 83 81 79 79 78 76 75
308 312 299 272 275 269 100 92 82 64 75 83 58 338 77 74 71 101 118 117 120 124 131 122 119 118 115 112 109 106 105 104 102 101 99 97 95 93 92 89 88 86 84 82 81 80 79 78 77
294 290 291 282 280 327 72 80 86 83 83 93 97 24 40 71 102 119 120 125 121 121 117 119 121 120 119 115 113 110 108 106 104 103 101 98 95 93 92 90 89 87 86 84 83 82 81 79 77
301 289 267 264 271 1 35 73 94 116 117 27 86 100 76 44 82 115 125 125 121 117 117 124 123 123 122 119 116 114 112 109 105 104 101 99 96 93 92 91 90 89 87 85 84 82 81 79 75
261 275 259 259 261 55 52 59 84 147 152 154 238 105 93 62 88 117 132 126 124 119 121 128 123 123 123 123 120 116 114 112 108 105 103 101 99 97 95 94 92 91 89 87 86 84 81 77 72
263 250 246 243 229 170 122 93 193 187 121 114 203 105 101 123 127 136 135 128 125 121 122 126 118 119 121 121 119 116 114 113 112 110 107 106 103 101 100 99 96 94 93 91 89 86 82 77 70
254 245 256 260 248 186 133 126 237 228 160 138 166 107 119 147 137 139 134 130 125 124 127 133 132 122 115 114 115 112 110 111 111 110 107 104 102 100 98 99 100 99 96 94 91 89 85 80 71
278 254 247 254 250 219 130 138 44 326 69 79 30 94 140 150 144 139 136 134 129 132 137 145 148 140 129 117 114 112 110 108 108 107 104 103 103 101 98 95 99 101 100 98 96 94 92 88 76
288 246 237 235 240 197 138 155 123 16 78 99 64 47 110 134 144 145 147 148 146 147 151 152 152 148 141 133 125 116 111 112 114 115 124 128 123 115 98 94 99 102 103 104 105 108 111 110 103
215 233 238 248 277 194 144 173 143 182 184 163 128 98 117 139 155 162 168 169 167 165 161 155 153 149 145 140 140 137 132 143 141 146 164 160 119 108 103 94 100 105 108 114 125 140 164 185 189
214 236 248 256 341 18 131 184 172 211 217 189 165 149 147 160 169 176 180 177 175 170 162 160 153 148 144 141 156 154 149 167 157 165 172 121 108 117 119 115 118 123 145 148 169 207 221 86 51
229 244 254 255 45 104 238 220 220 234 260 51 121 151 158 173 183 186 184 179 177 175 170 167 157 154 152 155 158 152 149 159 154 160 153 135 141 149 151 159 169 173 176 163 172 149 96 92 74
229 246 245 222 131 242 266 248 243 243 238 118 112 146 169 182 189 190 186 178 177 179 174 173 167 166 163 159 156 158 155 160 155 153 160 151 148 155 150 153 161 165 151 169 164 140 138 118 86
224 237 239 214 199 217 245 254 243 241 226 175 163 172 183 189 188 188 190 186 182 181 176 175 177 176 170 164 162 164 160 160 153 157 171 165 158 157 151 152 168 162 164 162 159 144 151 135 124
240 242 234 217 202 202 222 251 237 236 225 210 193 191 192 192 189 194 193 189 184 182 177 177 179 182 178 175 175 172 161 160 158 164 173 175 166 162 161 161 174 172 154 143 154 158 158 166 193
209 229 228 210 200 198 203 249 239 220 214 219 210 202 194 194 194 196 192 189 184 182 181 179 180 184 183 182 179 176 167 167 168 165 168 177 175 168 167 165 175 170 158 168 175 186 194 207 212
196 212 219 217 195 190 201 249 251 223 208 215 215 209 196 193 195 193 191 189 187 185 182 182 182 185 185 184 182 182 177 174 174 170 170 178 181 178 171 173 175 168 166 178 173 195 190 182 162
190 207 217 217 192 197 211 238 253 249 225 223 223 219 203 196 198 192 190 189 187 185 182 183 184 187 182 180 182 187 188 184 183 180 178 177 182 184 180 177 176 168 168 181 178 192 183 170 169
211 207 217 221 204 195 223 241 247 242 231 227 227 228 218 204 195 185 185 185 184 185 185 185 186 188 184 185 187 191 196 192 194 192 186 183 183 185 186 179 180 176 178 187 185 180 185 201 171
240 238 229 221 176 205 247 255 252 243 236 226 222 221 221 211 196 186 183 184 189 192 191 190 189 188 189 192 191 192 188 195 196 193 194 192 187 185 190 187 185 183 184 190 189 177 177 188 176
223 227 222 207 141 205 282 273 244 240 234 232 226 223 220 212 203 191 186 189 192 196 196 196 194 191 191 188 186 187 190 193 196 198 200 201 195 190 189 193 190 188 187 192 193 184 179 188 199
217 216 225 214 193 232 206 270 248 231 223 220 220 220 223 220 212 199 191 192 195 200 199 198 197 195 192 189 192 192 196 201 201 196 197 199 200 197 194 194 195 193 192 195 194 192 188 180 185
196 174 199 214 237 268 245 264 261 240 235 221 212 212 216 218 215 209 198 196 199 199 198 199 198 198 195 194 197 199 206 207 198 192 195 198 201 201 198 197 198 198 197 198 194 192 193 190 185
143 118 100 68 222 247 223 233 264 223 225 218 211 208 210 215 215 214 204 194 197 196 195 196 199 203 199 198 200 203 207 205 198 198 200 200 200 202 201 199 201 201 199 198 198 195 195 197 194
158 145 154 182 210 236 192 215 247 221 226 212 205 206 214 219 216 213 207 199 196 194 195 198 200 206 203 202 204 207 210 208 207 204 203 199 199 202 203 200 202 201 201 198 194 193 196 197 195
181 175 174 185 202 226 189 222 245 218 190 178 197 230 240 236 229 223 211 203 201 198 197 198 203 208 206 206 209 210 210 211 213 211 207 204 203 203 197 200 203 202 199 196 192 195 197 194 196
178 199 208 145 126 220 226 239 250 200 187 202 222 235 241 245 240 234 225 211 206 202 201 202 206 209 209 210 210 211 210 212 214 212 211 206 202 196 195 197 200 201 198 196 192 197 194 189 191
177 164 165 187 184 219 241 224 223 183 199 209 216 224 231 234 242 236 224 219 215 208 207 207 210 215 215 214 213 214 214 214 215 214 213 210 202 194 192 196 198 198 197 194 192 187 183 181 182
168 178 179 184 208 194 227 244 206 183 186 191 198 193 192 196 201 220 230 234 228 224 216 214 216 219 220 218 217 215 215 214 214 216 216 211 203 195 193 194 194 195 194 190 189 187 178 180 177
188 182 181 183 202 211 226 259 152 133 148 156 162 162 163 168 177 201 217 221 228 229 226 224 224 223 223 222 222 220 216 213 214 217 215 208 203 197 193 189 191 193 193 189 188 184 182 181 179